This is the latest recevied weather packets stored in our database for station/object JR5YHL-13. If no packets are shown the sender has not sent any weather packets the latest 10 day(s).
| Time | Temp. | Humidity | Pressure | Rain* | Wind** | Luminosity | Snow |
|---|---|---|---|---|---|---|---|
| 1777450129 | 23.33° C | 46% | 1013.5 hPa | 0 mm | - | - | - |
| 1777449531 | 23.33° C | 46% | 1013.3 hPa | 0 mm | - | - | - |
| 1777448933 | 23.33° C | 45% | 1013.3 hPa | 0 mm | - | - | - |
| 1777448335 | 23.33° C | 42% | 1013.2 hPa | 0 mm | - | - | - |
| 1777447737 | 23.33° C | 44% | 1013 hPa | 0 mm | - | - | - |
| 1777447139 | 23.33° C | 41% | 1012.9 hPa | 0 mm | - | - | - |
| 1777446542 | 23.89° C | 40% | 1012.6 hPa | 0 mm | - | - | - |
| 1777445944 | 24.44° C | 41% | 1012.5 hPa | 0 mm | - | - | - |
| 1777445346 | 25° C | 39% | 1012.3 hPa | 0 mm | - | - | - |
| 1777444749 | 25° C | 37% | 1012.4 hPa | 0 mm | - | - | - |
| 1777444151 | 25.56° C | 38% | 1012.4 hPa | 0 mm | - | - | - |
| 1777443553 | 25.56° C | 37% | 1012.2 hPa | 0 mm | - | - | - |
| 1777442955 | 25° C | 36% | 1012 hPa | 0 mm | - | - | - |
| 1777442358 | 25.56° C | 36% | 1012 hPa | 0 mm | - | - | - |
| 1777441760 | 26.67° C | 37% | 1012 hPa | 0 mm | - | - | - |
| 1777441162 | 26.11° C | 37% | 1012 hPa | 0 mm | - | - | - |
| 1777440565 | 26.11° C | 38% | 1012.1 hPa | 0 mm | - | - | - |
| 1777439967 | 25.56° C | 37% | 1012.4 hPa | 0 mm | - | - | - |
| 1777439370 | 26.11° C | 39% | 1012.3 hPa | 0 mm | - | - | - |
| 1777438772 | 26.11° C | 40% | 1012.3 hPa | 0 mm | - | - | - |
| 1777438174 | 26.11° C | 39% | 1012.2 hPa | 0 mm | - | - | - |
| 1777437576 | 25.56° C | 41% | 1012.1 hPa | 0 mm | - | - | - |
| 1777436979 | 26.11° C | 40% | 1012.1 hPa | 0 mm | - | - | - |
| 1777436381 | 26.11° C | 40% | 1012.1 hPa | 0 mm | - | - | - |
| 1777435783 | 27.78° C | 33% | 1012 hPa | 0 mm | - | - | - |
* Rain latest hour (hover to see other rain measurements)
** Current wind speed in m/s (hover to see current wind gust speed)